STARLINK-1347 (45586 NORAD) Tracking and Keplerian Element Data

This shows tracking and keplerian element data for the satellite.

Feedback or suggestion? Click here.




ElementValue
Catalog45586
NameSTARLINK-1347
Epoch Orbit551
Epoch Day144.41668981
Epoch Year2020
RAAN248.2539
Inclination52.9985
Eccentricity0.0001083
Argument of Perigee89.7295
Mean Anonmoly355.3292
Mean Motion15.62752785
Decay Rate-0.00020349
L11 45586U 20025BH 20144.41668981 -.00020349 00000-0 -21695-3 0 9997
L22 45586 52.9985 248.2539 0001083 89.7295 355.3292 15.62752785 5511

Live tracking and technical data element details for STARLINK-1347 (NORAD 45586). STARLINK-1347 can be tracked NOW for your location showing map with azimuth and elevation plus other details from your city location.

Track the satellite on the map from your city or location and see movement details for azimuth, elevation, latitude, longitude, range, height, and movement on the map or in text.







IsCatalogInMostPopularTable: catalog: 45586, numindb: 7
Update: records affected: 1



GetName: 45586 STARLINK-1347

Hit Count: updated at: Tue, 26 May 2020 04:07:25 GMT